Home > Weather > Hürth > Past weeks

Flag for Germany Weather for the Past 2 Weeks in Hürth, North Rhine-Westphalia, Germany

Now
46 °F

Passing clouds.


Feels Like: 38 °F
Forecast: 39 / 50 °F
Wind: 26 mph from Southwest

Location: Noervenich

Current Time: Feb 9, 2016 at 12:27:58 AM

Latest Report: Feb 8, 2016 at 11:20 PM


Visibility: N/A

Pressure: 29.45 "Hg

Humidity: 53%

Dew point: 30 °F

Location of HürthLocation

Historic Weather in Hürth — Graph

°F

Hürth Temperature Yesterday

Maximum temperature yesterday: 50 °F (at 7:20 AM)
Minimum temperature yesterday: 46 °F (at 12:20 AM)
Average temperature yesterday: 48 °F

High & Low Weather Summary for the Past Weeks

 TemperatureHumidityPressure
High57 °F (Jan 25, 2:20 PM)100% (Feb 2, 9:20 AM)30.39 "Hg (Feb 2, 9:20 AM)
Low34 °F (Jan 29, 1:20 AM)50% (Feb 7, 4:20 PM)29.30 "Hg (Feb 8, 12:20 PM)
Average47 °F77%30.01 "Hg
* Reported Jan 24 10:20 PM — Feb 8 10:20 PM, Hürth, Weather by CustomWeather, © 2016

Note: Actual official high and low records may vary slightly from our data, if they occured in-between our weather recording intervals... More about our weather records

Advertising

Hürth Weather History for the Previous 24 Hours

 ConditionsComfort  
Time TempWeatherWind HumidityBarometerVisibility
10:20 PM
Mon, Feb 8
48 °FPassing clouds.26 mph54%29.42 "HgN/A
9:20 PM48 °FSprinkles. Passing clouds.28 mph54%29.39 "HgN/A
8:20 PM48 °FPassing clouds.21 mph50%29.39 "HgN/A
7:20 PM46 °FPassing clouds.25 mph62%29.39 "HgN/A
6:20 PM46 °FSprinkles. Partly cloudy.13 mph62%29.36 "HgN/A
5:20 PM48 °FPartly sunny.13 mph54%29.36 "HgN/A
4:20 PM50 °FScattered clouds.20 mph50%29.33 "HgN/A
3:20 PM50 °FScattered clouds.17 mph54%29.30 "HgN/A
2:20 PM50 °FPassing clouds.22 mph58%29.30 "HgN/A
1:20 PM50 °FPassing clouds.18 mph58%29.30 "HgN/A
12:20 PM50 °FSprinkles. Broken clouds.20 mph58%29.30 "HgN/A
11:20 AM48 °FSprinkles. Broken clouds.17 mph66%29.33 "HgN/A
10:20 AM46 °FScattered clouds.8 mph82%29.33 "HgN/A
9:20 AM46 °FRain. Partly sunny.13 mph82%29.33 "Hg4 mi
8:20 AM48 °FRain. Partly sunny.16 mph82%29.33 "Hg4 mi
7:20 AM50 °FLight rain. Partly cloudy.14 mph71%29.33 "HgN/A
6:20 AM48 °FPassing clouds.9 mph71%29.33 "HgN/A
5:20 AM46 °FPassing clouds.9 mph71%29.39 "HgN/A
4:20 AM46 °FPartly cloudy.14 mph66%29.42 "HgN/A
3:20 AM46 °FPassing clouds.13 mph66%29.45 "HgN/A
2:20 AM46 °FPassing clouds.15 mph62%29.47 "HgN/A
1:20 AM46 °FPassing clouds.9 mph62%29.53 "HgN/A
12:20 AM46 °FPassing clouds.12 mph62%29.56 "HgN/A
Weather by CustomWeather, © 2016

See weather overviewHow to use our weather pages